Location: Canazei
(46.4667°N, 11.7667°E)
Time: 05:01:07
(UTC+00:00)

Nadezhda 3 Rocket - Pass Details

Date: 21 April 2021
Orbit: 956 x 1000 km, 82.9° (Epoch: 10 May)

Event Time Altitude Azimuth Distance (km) Brightness Sun altitude
Exits shadow 01:41:59 42° 196° (SSW) 1,395 4.4 -22.6°
Maximum altitude 01:44:21 82° 278° (W) 1,011 3.9 -22.4°
Drops below altitude 10° 01:50:43 10° 7° (N) 2,760 7.1 -21.6°
Sets 01:53:15 0° 9° (N) 3,706 7.9 -21.3°
